UAL522 KDEN-KLAX

Flight info

Callsign UAL522
Flight time 2h 4m
Altitude 40000
Route BAYLR6 TEHRU DCT JASSE Q90 DNERO ANJLL4
Aircraft B772/H-SDE1E2E3FGHIJ2J3J4J5M1RWXY/LB1D1

Departure

Time 2026-05-05 01:53
Airport Denver International Airport (KDEN)

Arrival

Time 2026-05-05 03:57
Airport Los Angeles International Airport (KLAX)
Time Latitude Longitude Altitude Speed Heading
2026-05-05 01:35 39.85807 -104.67465 5391 ft 0 kts 357°
2026-05-05 01:41 39.85801 -104.67465 5384 ft 2 kts 356°
2026-05-05 01:41 39.85789 -104.67464 5389 ft 2 kts 356°
2026-05-05 01:41 39.85776 -104.67463 5388 ft 2 kts 355°
2026-05-05 01:41 39.85764 -104.67461 5384 ft 2 kts 355°
2026-05-05 01:42 39.85751 -104.67460 5386 ft 2 kts 354°
2026-05-05 01:42 39.85740 -104.67458 5388 ft 1 kts 353°
2026-05-05 01:42 39.85731 -104.67457 5384 ft 1 kts 352°
2026-05-05 01:42 39.85722 -104.67455 5387 ft 1 kts 352°
2026-05-05 01:43 39.85713 -104.67454 5389 ft 1 kts 352°
2026-05-05 01:43 39.85704 -104.67452 5386 ft 0 kts 350°
2026-05-05 01:46 39.85716 -104.67462 5388 ft 4 kts 316°
2026-05-05 01:46 39.85728 -104.67503 5391 ft 6 kts 283°
2026-05-05 01:46 39.85732 -104.67562 5391 ft 7 kts 271°
2026-05-05 01:46 39.85733 -104.67635 5391 ft 9 kts 272°
2026-05-05 01:47 39.85735 -104.67725 5387 ft 11 kts 270°
2026-05-05 01:47 39.85735 -104.67829 5391 ft 12 kts 271°
2026-05-05 01:47 39.85735 -104.67946 5391 ft 13 kts 271°
2026-05-05 01:47 39.85737 -104.68070 5386 ft 15 kts 271°
2026-05-05 01:48 39.85718 -104.68190 5388 ft 13 kts 228°
2026-05-05 01:48 39.85687 -104.68307 5386 ft 16 kts 266°
2026-05-05 01:48 39.85615 -104.68402 5375 ft 16 kts 183°
2026-05-05 01:48 39.85502 -104.68403 5377 ft 16 kts 180°
2026-05-05 01:49 39.85410 -104.68404 5377 ft 8 kts 180°
2026-05-05 01:49 39.85346 -104.68404 5375 ft 10 kts 181°
2026-05-05 01:49 39.85301 -104.68405 5378 ft 6 kts 181°
2026-05-05 01:49 39.85259 -104.68407 5378 ft 6 kts 184°
2026-05-05 01:50 39.85220 -104.68434 5376 ft 8 kts 232°
2026-05-05 01:50 39.85207 -104.68547 5374 ft 16 kts 268°
2026-05-05 01:50 39.85203 -104.68715 5365 ft 21 kts 267°
2026-05-05 01:50 39.85199 -104.68924 5359 ft 25 kts 269°
2026-05-05 01:51 39.85196 -104.69096 5356 ft 19 kts 269°
2026-05-05 01:51 39.85197 -104.69235 5351 ft 12 kts 272°
2026-05-05 01:51 39.85200 -104.69362 5347 ft 17 kts 271°
2026-05-05 01:51 39.85203 -104.69534 5341 ft 21 kts 271°
2026-05-05 01:52 39.85223 -104.69646 5342 ft 6 kts 323°
2026-05-05 01:52 39.85266 -104.69659 5341 ft 16 kts 356°
2026-05-05 01:52 39.85695 -104.69654 5346 ft 107 kts
2026-05-05 01:52 39.86702 -104.69655 5414 ft 174 kts 359°
2026-05-05 01:53 39.87993 -104.69620 6051 ft 196 kts 358°
2026-05-05 01:53 39.89385 -104.69610 6954 ft 192 kts 358°
2026-05-05 01:53 39.90642 -104.69946 7831 ft 193 kts 332°
2026-05-05 01:53 39.91619 -104.71290 8052 ft 229 kts 296°
2026-05-05 01:54 39.91870 -104.73482 8312 ft 265 kts 265°
2026-05-05 01:54 39.91116 -104.75755 8915 ft 286 kts 232°
2026-05-05 01:54 39.89636 -104.77474 9669 ft 286 kts 218°
2026-05-05 01:54 39.88055 -104.79065 9907 ft 291 kts 218°
2026-05-05 01:55 39.86426 -104.80719 9917 ft 298 kts 218°
2026-05-05 01:55 39.84802 -104.82418 9927 ft 301 kts 220°
2026-05-05 01:55 39.83171 -104.84177 9968 ft 311 kts 220°
2026-05-05 01:55 39.81436 -104.86083 10238 ft 342 kts 220°
2026-05-05 01:56 39.79534 -104.88187 10473 ft 374 kts 221°
2026-05-05 01:56 39.77728 -104.90631 11205 ft 379 kts 237°
2026-05-05 01:56 39.76735 -104.93734 12593 ft 365 kts 256°
2026-05-05 01:56 39.76097 -104.96943 13658 ft 371 kts 256°
2026-05-05 01:57 39.75394 -105.00210 14640 ft 377 kts 255°
2026-05-05 01:57 39.74640 -105.03496 15690 ft 380 kts 252°
2026-05-05 01:57 39.73693 -105.06673 16712 ft 384 kts 248°
2026-05-05 01:57 39.72587 -105.09950 17397 ft 398 kts 247°
2026-05-05 01:58 39.71456 -105.13227 18128 ft 406 kts 247°
2026-05-05 01:58 39.70304 -105.16612 18848 ft 413 kts 248°
2026-05-05 01:58 39.69156 -105.20054 19597 ft 418 kts 248°
2026-05-05 01:58 39.68016 -105.23516 20341 ft 423 kts 249°
2026-05-05 01:59 39.66858 -105.27048 21066 ft 428 kts 249°
2026-05-05 01:59 39.65684 -105.30616 21760 ft 433 kts 249°
2026-05-05 01:59 39.64494 -105.34226 22426 ft 438 kts 249°
2026-05-05 01:59 39.63286 -105.37885 23079 ft 445 kts 249°
2026-05-05 02:00 39.62060 -105.41600 23617 ft 452 kts 249°
2026-05-05 02:00 39.60817 -105.45368 24147 ft 456 kts 249°
2026-05-05 02:00 39.59561 -105.49173 24764 ft 458 kts 249°
2026-05-05 02:00 39.58297 -105.52970 25401 ft 460 kts 249°
2026-05-05 02:01 39.57022 -105.56788 25988 ft 462 kts 249°
2026-05-05 02:01 39.55742 -105.60627 26456 ft 466 kts 249°
2026-05-05 02:01 39.54501 -105.64523 26968 ft 468 kts 251°
2026-05-05 02:01 39.53388 -105.68456 27625 ft 466 kts 252°
2026-05-05 02:02 39.52329 -105.72403 28438 ft 461 kts 253°
2026-05-05 02:02 39.51289 -105.76304 29303 ft 455 kts 253°
2026-05-05 02:02 39.50265 -105.80106 30118 ft 451 kts 253°
2026-05-05 02:02 39.49212 -105.83933 31157 ft 436 kts 253°
2026-05-05 02:03 39.48223 -105.87452 32803 ft 408 kts 254°
2026-05-05 02:03 39.47270 -105.90847 33910 ft 399 kts 254°
2026-05-05 02:03 39.46320 -105.94258 34016 ft 404 kts 254°
2026-05-05 02:03 39.45364 -105.97704 34139 ft 408 kts 254°
2026-05-05 02:04 39.44394 -106.01168 34401 ft 408 kts 254°
2026-05-05 02:04 39.43433 -106.04600 34991 ft 401 kts 253°
2026-05-05 02:04 39.42494 -106.07951 35624 ft 392 kts 253°
2026-05-05 02:04 39.41575 -106.11221 36262 ft 383 kts 253°
2026-05-05 02:05 39.40675 -106.14422 36857 ft 375 kts 253°
2026-05-05 02:05 39.39785 -106.17588 37233 ft 373 kts 253°
2026-05-05 02:05 39.38910 -106.20692 37622 ft 370 kts 253°
2026-05-05 02:05 39.38033 -106.23798 37931 ft 368 kts 252°
2026-05-05 02:06 39.37156 -106.26907 38041 ft 367 kts 252°
2026-05-05 02:06 39.36281 -106.30004 38037 ft 366 kts 253°
2026-05-05 02:06 39.34540 -106.36163 38050 ft 365 kts 252°
2026-05-05 02:07 39.32795 -106.42323 38055 ft 366 kts 252°
2026-05-05 02:07 39.31031 -106.48540 38065 ft 370 kts 252°
2026-05-05 02:08 39.29251 -106.54779 38015 ft 368 kts 252°
2026-05-05 02:08 39.27486 -106.60960 37930 ft 365 kts 252°
2026-05-05 02:09 39.25770 -106.67105 37990 ft 369 kts 252°
2026-05-05 02:09 39.23701 -106.73208 37975 ft 380 kts 243°
2026-05-05 02:10 39.20536 -106.78733 37987 ft 385 kts 239°
2026-05-05 02:10 39.17304 -106.84260 37998 ft 386 kts 239°
2026-05-05 02:11 39.14095 -106.89770 38294 ft 382 kts 239°
2026-05-05 02:11 39.12531 -106.92458 38445 ft 377 kts 239°
2026-05-05 02:11 39.10971 -106.95163 38571 ft 374 kts 239°
2026-05-05 02:12 39.06264 -107.03269 38918 ft 379 kts 239°
2026-05-05 02:12 39.04672 -107.05999 39078 ft 382 kts 239°
2026-05-05 02:13 39.03078 -107.08734 39262 ft 381 kts 238°
2026-05-05 02:13 39.01486 -107.11471 39389 ft 382 kts 239°
2026-05-05 02:13 38.99886 -107.14222 39443 ft 386 kts 239°
2026-05-05 02:13 38.98277 -107.16983 39616 ft 386 kts 239°
2026-05-05 02:14 38.96684 -107.19719 39748 ft 388 kts 239°
2026-05-05 02:14 38.93418 -107.25295 39795 ft 392 kts 239°
2026-05-05 02:15 38.90141 -107.30894 39892 ft 391 kts 239°
2026-05-05 02:15 38.86869 -107.36463 39872 ft 384 kts 239°
2026-05-05 02:16 38.83631 -107.41969 39869 ft 390 kts 238°
2026-05-05 02:16 38.80346 -107.47557 39847 ft 395 kts 238°
2026-05-05 02:17 38.77017 -107.53205 39814 ft 398 kts 238°
2026-05-05 02:17 38.73698 -107.58808 39818 ft 391 kts 238°
2026-05-05 02:18 38.70440 -107.64313 39785 ft 387 kts 238°
2026-05-05 02:18 38.67217 -107.69753 39803 ft 385 kts 238°
2026-05-05 02:19 38.63979 -107.75214 39770 ft 384 kts 238°
2026-05-05 02:19 38.60735 -107.80639 39797 ft 384 kts 238°
2026-05-05 02:19 38.59120 -107.83358 39965 ft 384 kts 238°
2026-05-05 02:20 38.57499 -107.86097 39924 ft 388 kts 238°
2026-05-05 02:20 38.54202 -107.91636 39923 ft 393 kts 238°
2026-05-05 02:21 38.50899 -107.97157 39928 ft 394 kts 238°
2026-05-05 02:21 38.47567 -108.02713 39918 ft 393 kts 238°
2026-05-05 02:22 38.44238 -108.08258 39896 ft 394 kts 238°
2026-05-05 02:22 38.40909 -108.13800 39844 ft 392 kts 238°
2026-05-05 02:23 38.37613 -108.19295 39835 ft 389 kts 238°
2026-05-05 02:23 38.34317 -108.24763 39791 ft 388 kts 238°
2026-05-05 02:24 38.31012 -108.30217 39795 ft 389 kts 238°
2026-05-05 02:24 38.28259 -108.34763 39807 ft 390 kts 238°
2026-05-05 02:25 38.24945 -108.40232 39811 ft 390 kts 238°
2026-05-05 02:25 38.21089 -108.46586 39793 ft 390 kts 237°
2026-05-05 02:26 38.18307 -108.51161 39790 ft 390 kts 237°
2026-05-05 02:26 38.14993 -108.56605 39809 ft 390 kts 237°
2026-05-05 02:27 38.11694 -108.62014 39792 ft 390 kts 237°
2026-05-05 02:27 38.08373 -108.67451 39787 ft 389 kts 237°
2026-05-05 02:28 38.05052 -108.72878 39773 ft 389 kts 237°
2026-05-05 02:28 38.01735 -108.78288 39781 ft 388 kts 237°
2026-05-05 02:29 37.98427 -108.83677 39788 ft 387 kts 237°
2026-05-05 02:29 37.95125 -108.89050 39785 ft 386 kts 237°
2026-05-05 02:30 37.91825 -108.94404 39799 ft 385 kts 237°
2026-05-05 02:30 37.88524 -108.99754 39793 ft 385 kts 237°
2026-05-05 02:31 37.85214 -109.05111 39795 ft 385 kts 237°
2026-05-05 02:31 37.81907 -109.10454 39795 ft 385 kts 237°
2026-05-05 02:32 37.78621 -109.15756 39806 ft 385 kts 236°
2026-05-05 02:32 37.75309 -109.21087 39837 ft 385 kts 236°
2026-05-05 02:33 37.71996 -109.26414 39853 ft 385 kts 236°
2026-05-05 02:33 37.68683 -109.31728 39885 ft 385 kts 236°
2026-05-05 02:34 37.65370 -109.37040 39914 ft 385 kts 236°
2026-05-05 02:34 37.62055 -109.42346 39927 ft 385 kts 236°
2026-05-05 02:35 37.58735 -109.47651 39931 ft 385 kts 236°
2026-05-05 02:35 37.55415 -109.52945 39930 ft 385 kts 236°
2026-05-05 02:36 37.52086 -109.58243 39914 ft 386 kts 236°
2026-05-05 02:36 37.48777 -109.63505 39890 ft 385 kts 236°
2026-05-05 02:37 37.45446 -109.68790 39859 ft 384 kts 236°
2026-05-05 02:37 37.43783 -109.71427 39735 ft 385 kts 235°
2026-05-05 02:37 37.42120 -109.74063 39746 ft 384 kts 235°
2026-05-05 02:38 37.38795 -109.79323 39748 ft 383 kts 235°
2026-05-05 02:38 37.35492 -109.84579 39749 ft 382 kts 235°
2026-05-05 02:39 37.32176 -109.89824 39744 ft 384 kts 235°
2026-05-05 02:39 37.28872 -109.95028 39748 ft 383 kts 235°
2026-05-05 02:40 37.25538 -110.00268 39743 ft 384 kts 235°
2026-05-05 02:40 37.22199 -110.05508 39740 ft 384 kts 235°
2026-05-05 02:41 37.18858 -110.10727 39743 ft 383 kts 235°
2026-05-05 02:41 37.15531 -110.15945 39735 ft 383 kts 234°
2026-05-05 02:42 37.12193 -110.21165 39714 ft 384 kts 235°
2026-05-05 02:42 37.08874 -110.26343 39742 ft 384 kts 235°
2026-05-05 02:43 37.05523 -110.31564 39754 ft 385 kts 235°
2026-05-05 02:43 37.02158 -110.36787 39761 ft 385 kts 234°
2026-05-05 02:44 36.98773 -110.42002 39758 ft 386 kts 234°
2026-05-05 02:44 36.95392 -110.47240 39772 ft 387 kts 235°
2026-05-05 02:45 36.92022 -110.52496 39781 ft 388 kts 234°
2026-05-05 02:45 36.88635 -110.57738 39778 ft 386 kts 234°
2026-05-05 02:46 36.85254 -110.62956 39779 ft 386 kts 234°
2026-05-05 02:46 36.81868 -110.68173 39770 ft 387 kts 234°
2026-05-05 02:47 36.78505 -110.73346 39783 ft 386 kts 234°
2026-05-05 02:47 36.75123 -110.78542 39780 ft 385 kts 234°
2026-05-05 02:48 36.71741 -110.83722 39791 ft 385 kts 233°
2026-05-05 02:48 36.68370 -110.88889 39767 ft 383 kts 233°
2026-05-05 02:49 36.65015 -110.94012 39786 ft 381 kts 233°
2026-05-05 02:49 36.61661 -110.99130 39777 ft 382 kts 233°
2026-05-05 02:50 36.58299 -111.04254 39789 ft 382 kts 233°
2026-05-05 02:50 36.54929 -111.09381 39781 ft 383 kts 233°
2026-05-05 02:51 36.51574 -111.14475 39804 ft 383 kts 233°
2026-05-05 02:51 36.48192 -111.19609 39801 ft 384 kts 233°
2026-05-05 02:52 36.44805 -111.24734 39796 ft 384 kts 232°
2026-05-05 02:52 36.41415 -111.29859 39810 ft 384 kts 233°
2026-05-05 02:53 36.38027 -111.34978 39804 ft 384 kts 232°
2026-05-05 02:53 36.34633 -111.40094 39807 ft 384 kts 232°
2026-05-05 02:54 36.31237 -111.45207 39803 ft 384 kts 232°
2026-05-05 02:54 36.27839 -111.50312 39811 ft 383 kts 232°
2026-05-05 02:55 36.24461 -111.55381 39826 ft 383 kts 232°
2026-05-05 02:55 36.21063 -111.60472 39820 ft 383 kts 232°
2026-05-05 02:56 36.17665 -111.65555 39822 ft 383 kts 232°
2026-05-05 02:56 36.14287 -111.70615 39851 ft 379 kts 233°
2026-05-05 02:57 36.10862 -111.75563 39818 ft 379 kts 233°
2026-05-05 02:57 36.07934 -111.80957 39881 ft 383 kts 239°
2026-05-05 02:58 36.05350 -111.86801 39922 ft 391 kts 243°
2026-05-05 02:58 36.03303 -111.93057 39961 ft 394 kts 246°
2026-05-05 02:59 36.01343 -111.99303 40032 ft 387 kts 246°
2026-05-05 02:59 35.99346 -112.05523 40001 ft 389 kts 245°
2026-05-05 03:00 35.97381 -112.11668 40011 ft 380 kts 246°
2026-05-05 03:00 35.95444 -112.17742 40038 ft 382 kts 245°
2026-05-05 03:01 35.93475 -112.23866 40045 ft 388 kts 245°
2026-05-05 03:01 35.91468 -112.30086 40014 ft 391 kts 245°
2026-05-05 03:02 35.89444 -112.36332 39972 ft 392 kts 245°
2026-05-05 03:02 35.87406 -112.42576 39956 ft 392 kts 245°
2026-05-05 03:03 35.85376 -112.48815 39907 ft 392 kts 245°
2026-05-05 03:03 35.83355 -112.55007 39884 ft 391 kts 244°
2026-05-05 03:04 35.81328 -112.61207 39881 ft 389 kts 244°
2026-05-05 03:04 35.79308 -112.67386 39880 ft 388 kts 244°
2026-05-05 03:05 35.77287 -112.73552 39880 ft 388 kts 244°
2026-05-05 03:05 35.75265 -112.79713 39897 ft 387 kts 244°
2026-05-05 03:06 35.73238 -112.85870 39885 ft 388 kts 244°
2026-05-05 03:06 35.71208 -112.92024 39885 ft 388 kts 244°
2026-05-05 03:07 35.69172 -112.98188 39879 ft 389 kts 243°
2026-05-05 03:07 35.67142 -113.04318 39881 ft 390 kts 244°
2026-05-05 03:08 35.65096 -113.10486 39872 ft 388 kts 244°
2026-05-05 03:08 35.63048 -113.16646 39864 ft 390 kts 243°
2026-05-05 03:09 35.60990 -113.22830 39862 ft 391 kts 243°
2026-05-05 03:09 35.58916 -113.29027 39858 ft 392 kts 243°
2026-05-05 03:10 35.56838 -113.35218 39849 ft 392 kts 243°
2026-05-05 03:10 35.54753 -113.41420 39850 ft 392 kts 243°
2026-05-05 03:11 35.53025 -113.46573 39853 ft 394 kts 243°
2026-05-05 03:11 35.50612 -113.53766 39837 ft 395 kts 243°
2026-05-05 03:12 35.48861 -113.58969 39834 ft 396 kts 243°
2026-05-05 03:12 35.46738 -113.65218 39842 ft 397 kts 243°
2026-05-05 03:13 35.44593 -113.71487 39878 ft 398 kts 243°
2026-05-05 03:13 35.42464 -113.77753 39900 ft 400 kts 244°
2026-05-05 03:14 35.40322 -113.84053 39924 ft 401 kts 243°
2026-05-05 03:14 35.38181 -113.90329 39936 ft 402 kts 243°
2026-05-05 03:15 35.36017 -113.96656 39944 ft 402 kts 243°
2026-05-05 03:15 35.33855 -114.02973 39938 ft 402 kts 243°
2026-05-05 03:16 35.31687 -114.09279 39934 ft 402 kts 244°
2026-05-05 03:16 35.29504 -114.15619 39912 ft 405 kts 244°
2026-05-05 03:17 35.27315 -114.21970 39878 ft 407 kts 244°
2026-05-05 03:17 35.25102 -114.28375 39851 ft 408 kts 244°
2026-05-05 03:18 35.22883 -114.34782 39817 ft 409 kts 244°
2026-05-05 03:18 35.20678 -114.41138 39816 ft 409 kts 244°
2026-05-05 03:19 35.17316 -114.50798 39805 ft 413 kts 244°
2026-05-05 03:19 35.15055 -114.57280 39822 ft 414 kts 244°
2026-05-05 03:20 35.12790 -114.63763 39827 ft 415 kts 244°
2026-05-05 03:20 35.10539 -114.70261 39822 ft 415 kts 244°
2026-05-05 03:21 35.08290 -114.76749 39833 ft 415 kts 244°
2026-05-05 03:21 35.06035 -114.83233 39810 ft 414 kts 244°
2026-05-05 03:22 35.03799 -114.89648 39817 ft 410 kts 244°
2026-05-05 03:22 35.01294 -114.95839 39820 ft 405 kts 240°
2026-05-05 03:23 34.98637 -115.01876 39838 ft 404 kts 240°
2026-05-05 03:23 34.95966 -115.07970 39844 ft 411 kts 240°
2026-05-05 03:24 34.93255 -115.14153 39841 ft 416 kts 240°
2026-05-05 03:24 34.90533 -115.20400 39853 ft 418 kts 240°
2026-05-05 03:25 34.87807 -115.26659 39849 ft 418 kts 240°
2026-05-05 03:25 34.85093 -115.32879 39848 ft 418 kts 240°
2026-05-05 03:26 34.82364 -115.39123 39855 ft 418 kts 240°
2026-05-05 03:26 34.79628 -115.45378 39856 ft 418 kts 240°
2026-05-05 03:27 34.77122 -115.51790 39863 ft 419 kts 244°
2026-05-05 03:27 34.74796 -115.58292 39867 ft 419 kts 244°
2026-05-05 03:28 34.72438 -115.64790 39883 ft 420 kts 244°
2026-05-05 03:28 34.70061 -115.71238 39874 ft 421 kts 244°
2026-05-05 03:29 34.67649 -115.77751 39874 ft 423 kts 244°
2026-05-05 03:29 34.65231 -115.84269 39874 ft 423 kts 244°
2026-05-05 03:30 34.62808 -115.90798 39878 ft 424 kts 244°
2026-05-05 03:30 34.60401 -115.97339 39892 ft 424 kts 244°
2026-05-05 03:31 34.58006 -116.03842 39877 ft 425 kts 244°
2026-05-05 03:31 34.55596 -116.10364 39868 ft 418 kts 244°
2026-05-05 03:32 34.53271 -116.16648 39682 ft 398 kts 244°
2026-05-05 03:32 34.52147 -116.19679 39177 ft 392 kts 243°
2026-05-05 03:32 34.51024 -116.22700 38441 ft 393 kts 243°
2026-05-05 03:33 34.49899 -116.25722 37723 ft 391 kts 243°
2026-05-05 03:33 34.48802 -116.28670 37177 ft 373 kts 243°
2026-05-05 03:33 34.47743 -116.31517 36331 ft 371 kts 242°
2026-05-05 03:33 34.46695 -116.34326 35712 ft 361 kts 242°
2026-05-05 03:34 34.45656 -116.37103 35008 ft 363 kts 242°
2026-05-05 03:34 34.44608 -116.39895 34331 ft 364 kts 242°
2026-05-05 03:34 34.43574 -116.42650 33635 ft 364 kts 242°
2026-05-05 03:34 34.42525 -116.45450 32844 ft 365 kts 242°
2026-05-05 03:35 34.41472 -116.48256 32097 ft 365 kts 241°
2026-05-05 03:35 34.40375 -116.51012 31522 ft 361 kts 240°
2026-05-05 03:35 34.39252 -116.53711 30998 ft 357 kts 240°
2026-05-05 03:35 34.38134 -116.56382 30459 ft 353 kts 240°
2026-05-05 03:36 34.37030 -116.59031 29902 ft 351 kts 240°
2026-05-05 03:36 34.35940 -116.61663 29206 ft 349 kts 240°
2026-05-05 03:36 34.34884 -116.64224 28073 ft 335 kts 240°
2026-05-05 03:36 34.33837 -116.66755 26494 ft 344 kts 241°
2026-05-05 03:37 34.32738 -116.69432 25305 ft 362 kts 242°
2026-05-05 03:37 34.31638 -116.72163 24746 ft 359 kts 242°
2026-05-05 03:37 34.30556 -116.74865 24277 ft 355 kts 242°
2026-05-05 03:37 34.29479 -116.77546 23828 ft 352 kts 242°
2026-05-05 03:38 34.28429 -116.80166 23297 ft 350 kts 242°
2026-05-05 03:38 34.27364 -116.82815 22713 ft 350 kts 242°
2026-05-05 03:38 34.26301 -116.85455 22157 ft 348 kts 242°
2026-05-05 03:38 34.25240 -116.88086 21642 ft 347 kts 242°
2026-05-05 03:39 34.24182 -116.90707 21072 ft 347 kts 242°
2026-05-05 03:39 34.23120 -116.93333 20546 ft 346 kts 242°
2026-05-05 03:39 34.22066 -116.95938 20027 ft 345 kts 242°
2026-05-05 03:39 34.21023 -116.98546 19535 ft 344 kts 244°
2026-05-05 03:40 34.20179 -117.01250 19049 ft 344 kts 249°
2026-05-05 03:40 34.19473 -117.04024 18527 ft 345 kts 250°
2026-05-05 03:40 34.18783 -117.06789 18042 ft 344 kts 250°
2026-05-05 03:40 34.18080 -117.09494 17545 ft 341 kts 250°
2026-05-05 03:41 34.17352 -117.12210 17139 ft 337 kts 249°
2026-05-05 03:41 34.16624 -117.14903 16998 ft 341 kts 249°
2026-05-05 03:41 34.15875 -117.17638 16916 ft 342 kts 249°
2026-05-05 03:41 34.15124 -117.20364 16519 ft 342 kts 249°
2026-05-05 03:42 34.14374 -117.23086 16106 ft 338 kts 250°
2026-05-05 03:42 34.13640 -117.25750 15744 ft 331 kts 250°
2026-05-05 03:42 34.12918 -117.28372 15291 ft 327 kts 250°
2026-05-05 03:42 34.12199 -117.30977 14782 ft 326 kts 250°
2026-05-05 03:43 34.11484 -117.33569 14319 ft 325 kts 250°
2026-05-05 03:43 34.10760 -117.36186 14159 ft 332 kts 250°
2026-05-05 03:43 34.10063 -117.38800 13956 ft 330 kts 251°
2026-05-05 03:43 34.09407 -117.41442 13587 ft 326 kts 252°
2026-05-05 03:44 34.08770 -117.44033 13274 ft 318 kts 252°
2026-05-05 03:44 34.08143 -117.46555 12977 ft 310 kts 252°
2026-05-05 03:44 34.07525 -117.49021 12613 ft 304 kts 252°
2026-05-05 03:44 34.06977 -117.51475 12164 ft 302 kts 256°
2026-05-05 03:45 34.06547 -117.53945 11723 ft 300 kts 258°
2026-05-05 03:45 34.06159 -117.56356 11639 ft 285 kts 258°
2026-05-05 03:45 34.05788 -117.58667 11357 ft 279 kts 258°
2026-05-05 03:45 34.05413 -117.60969 10855 ft 281 kts 258°
2026-05-05 03:46 34.05031 -117.63286 10369 ft 282 kts 258°
2026-05-05 03:46 34.04646 -117.65596 9943 ft 282 kts 258°
2026-05-05 03:46 34.04259 -117.67905 9509 ft 279 kts 258°
2026-05-05 03:46 34.03876 -117.70179 9216 ft 273 kts 258°
2026-05-05 03:47 34.03510 -117.72391 9056 ft 263 kts 259°
2026-05-05 03:47 34.03162 -117.74518 8918 ft 260 kts 258°
2026-05-05 03:47 34.02804 -117.76663 8630 ft 260 kts 259°
2026-05-05 03:47 34.02449 -117.78761 8352 ft 256 kts 258°
2026-05-05 03:48 34.02090 -117.80840 8093 ft 251 kts 258°
2026-05-05 03:48 34.01741 -117.82898 7837 ft 251 kts 258°
2026-05-05 03:48 34.01389 -117.84960 7579 ft 251 kts 258°
2026-05-05 03:48 34.01034 -117.87033 7325 ft 252 kts 258°
2026-05-05 03:49 34.00678 -117.89104 7069 ft 252 kts 258°
2026-05-05 03:49 34.00323 -117.91166 6785 ft 247 kts 258°
2026-05-05 03:49 33.99980 -117.93152 6569 ft 236 kts 258°
2026-05-05 03:49 33.99651 -117.95059 6299 ft 228 kts 259°
2026-05-05 03:50 33.99336 -117.96885 6047 ft 224 kts 259°
2026-05-05 03:50 33.99020 -117.98716 5814 ft 222 kts 258°
2026-05-05 03:50 33.98708 -118.00520 5587 ft 219 kts 259°
2026-05-05 03:50 33.98397 -118.02314 5370 ft 219 kts 259°
2026-05-05 03:51 33.98085 -118.04110 5132 ft 219 kts 259°
2026-05-05 03:51 33.97773 -118.05906 4920 ft 219 kts 259°
2026-05-05 03:51 33.97462 -118.07702 4677 ft 218 kts 258°
2026-05-05 03:51 33.97153 -118.09459 4453 ft 209 kts 258°
2026-05-05 03:52 33.96858 -118.11115 4242 ft 195 kts 258°
2026-05-05 03:52 33.96587 -118.12660 4042 ft 182 kts 258°
2026-05-05 03:52 33.96323 -118.14115 3853 ft 174 kts 258°
2026-05-05 03:52 33.96101 -118.15510 3727 ft 166 kts 260°
2026-05-05 03:53 33.95931 -118.16879 3681 ft 165 kts 262°
2026-05-05 03:53 33.95779 -118.18265 3646 ft 168 kts 262°
2026-05-05 03:53 33.95632 -118.19664 3588 ft 171 kts 262°
2026-05-05 03:53 33.95483 -118.21133 3127 ft 179 kts 264°
2026-05-05 03:54 33.95344 -118.22550 2948 ft 161 kts 263°
2026-05-05 03:54 33.95204 -118.23930 2621 ft 168 kts 264°
2026-05-05 03:54 33.95059 -118.25284 2450 ft 162 kts 262°
2026-05-05 03:54 33.94922 -118.26601 2104 ft 151 kts 263°
2026-05-05 03:55 33.94797 -118.27859 1893 ft 151 kts 261°
2026-05-05 03:55 33.94674 -118.29104 1660 ft 148 kts 264°
2026-05-05 03:55 33.94552 -118.30315 1478 ft 143 kts 264°
2026-05-05 03:55 33.94431 -118.31499 1284 ft 144 kts 264°
2026-05-05 03:56 33.94302 -118.32701 1089 ft 145 kts 263°
2026-05-05 03:56 33.94182 -118.33888 851 ft 140 kts 262°
2026-05-05 03:56 33.94063 -118.35066 673 ft 143 kts 261°
2026-05-05 03:56 33.93943 -118.36259 474 ft 145 kts 262°
2026-05-05 03:57 33.93820 -118.37477 296 ft 146 kts 263°
2026-05-05 03:57 33.93740 -118.38274 166 ft 143 kts 262°
2026-05-05 03:57 33.93594 -118.39675 128 ft 81 kts 263°
2026-05-05 03:57 33.93569 -118.40149 129 ft 38 kts 279°
2026-05-05 03:58 33.93615 -118.40337 125 ft 19 kts 287°
2026-05-05 03:58 33.93621 -118.40495 126 ft 19 kts 265°
2026-05-05 03:58 33.93613 -118.40580 127 ft 7 kts 261°
2026-05-05 03:58 33.93600 -118.40696 128 ft 24 kts 263°
2026-05-05 03:59 33.93602 -118.40824 127 ft 17 kts 286°
2026-05-05 03:59 33.93669 -118.40896 125 ft 20 kts 349°
2026-05-05 03:59 33.93791 -118.40913 127 ft 20 kts 352°
2026-05-05 03:59 33.93867 -118.40874 126 ft 17 kts 69°
2026-05-05 04:00 33.93940 -118.40817 125 ft 17 kts 358°
2026-05-05 04:00 33.94023 -118.40835 128 ft 3 kts 316°
2026-05-05 04:00 33.94026 -118.40904 125 ft 6 kts 262°
2026-05-05 04:00 33.94024 -118.40923 126 ft 0 kts 263°